This is the latest recevied weather packets stored in our database for station/object KQ4UPF. If no packets are shown the sender has not sent any weather packets the latest 10 day(s).
| Time | Temp. | Humidity | Pressure | Rain* | Wind** | Luminosity | Snow |
|---|---|---|---|---|---|---|---|
| 1777481907 | 22.22° C | 84% | 1014 hPa | 0 mm | - | 193 W/m² | - |
| 1777481605 | 22.78° C | 85% | 1014.1 hPa | 0 mm | - | 176 W/m² | - |
| 1777481301 | 22.78° C | 85% | 1014.2 hPa | 0 mm | - | 153 W/m² | - |
| 1777480998 | 22.78° C | 83% | 1014.2 hPa | 0 mm | - | 108 W/m² | - |
| 1777480694 | 23.33° C | 83% | 1014.3 hPa | 0 mm | - | 130 W/m² | - |
| 1777480391 | 22.78° C | 85% | 1014.4 hPa | 0 mm | - | 238 W/m² | - |
| 1777480087 | 22.78° C | 84% | 1014.4 hPa | 0 mm | - | 157 W/m² | - |
| 1777479783 | 22.78° C | 84% | 1014.6 hPa | 0 mm | - | 149 W/m² | - |
| 1777479481 | 22.78° C | 85% | 1014.6 hPa | 0 mm | - | 166 W/m² | - |
| 1777479177 | 22.78° C | 84% | 1014.4 hPa | 0 mm | - | 154 W/m² | - |
| 1777478875 | 22.78° C | 84% | 1014.4 hPa | 0 mm | - | 172 W/m² | - |
| 1777478570 | 22.78° C | 84% | 1014.4 hPa | 0 mm | - | 243 W/m² | - |
| 1777478268 | 22.78° C | 83% | 1014.3 hPa | 0 mm | - | 195 W/m² | - |
| 1777477964 | 22.78° C | 84% | 1014.2 hPa | 0 mm | - | 248 W/m² | - |
| 1777477659 | 22.78° C | 84% | 1014.4 hPa | 0 mm | - | 216 W/m² | - |
| 1777477357 | 22.78° C | 83% | 1014.3 hPa | 0 mm | - | 242 W/m² | - |
| 1777477053 | 22.78° C | 81% | 1014.3 hPa | 0 mm | - | 213 W/m² | - |
| 1777476751 | 23.33° C | 83% | 1014.4 hPa | 0 mm | - | 248 W/m² | - |
| 1777476447 | 23.33° C | 83% | 1014.2 hPa | 0 mm | - | 389 W/m² | - |
| 1777476144 | 23.33° C | 81% | 1014.1 hPa | 0 mm | - | 439 W/m² | - |
| 1777475839 | 23.89° C | 82% | 1014.2 hPa | 0 mm | - | 427 W/m² | - |
| 1777475536 | 23.89° C | 82% | 1014.4 hPa | 0 mm | - | 338 W/m² | - |
| 1777475232 | 23.33° C | 84% | 1014.4 hPa | 0 mm | - | 411 W/m² | - |
| 1777474928 | 22.78° C | 84% | 1014.4 hPa | 0 mm | - | 384 W/m² | - |
| 1777474623 | 23.33° C | 80% | 1014.3 hPa | 0 mm | - | 333 W/m² | - |
* Rain latest hour (hover to see other rain measurements)
** Current wind speed in m/s (hover to see current wind gust speed)